| time (UTC) | temp F | wind direction | speed knots | gust knots | rain 1hr in | rain 24hr in | rain mn in | humidity % | barometer mb |
| 20260906224550 | 65 | 310 | 2.6 | 7.0 | 0.00 | 0.01 | 0.01 | 47 | 1014.3 |
| 20260906223047 | 66 | 279 | 2.6 | 7.8 | 0.00 | 0.01 | 0.01 | 43 | 1014.2 |
| 20260906221601 | 67 | 329 | 2.6 | 6.1 | 0.00 | 0.01 | 0.01 | 43 | 1014.2 |
| 20260906220055 | 67 | 355 | 3.5 | 8.7 | 0.00 | 0.01 | 0.01 | 41 | 1014.0 |
| 20260906214549 | 67 | 355 | 3.5 | 7.8 | 0.00 | 0.01 | 0.01 | 42 | 1014.0 |
| 20260906213126 | 67 | 306 | 4.3 | 7.8 | 0.00 | 0.01 | 0.01 | 41 | 1014.0 |
| 20260906211603 | 68 | 322 | 3.5 | 9.6 | 0.00 | 0.01 | 0.01 | 40 | 1013.9 |
| 20260906210057 | 68 | 334 | 2.6 | 9.6 | 0.00 | 0.01 | 0.01 | 41 | 1014.0 |
| 20260906204621 | 69 | 350 | 6.1 | 13.0 | 0.00 | 0.01 | 0.01 | 36 | 1013.8 |
| 20260906203057 | 70 | 24 | 3.5 | 12.2 | 0.00 | 0.01 | 0.01 | 37 | 1013.8 |
| 20260906201604 | 70 | 334 | 4.3 | 13.0 | 0.00 | 0.01 | 0.01 | 37 | 1013.7 |
| 20260906200058 | 70 | 263 | 5.2 | 10.4 | 0.00 | 0.01 | 0.01 | 35 | 1013.7 |
| 20260906194553 | 70 | 355 | 5.2 | 11.3 | 0.00 | 0.01 | 0.01 | 35 | 1013.8 |
| 20260906193101 | 70 | 325 | 5.2 | 14.8 | 0.00 | 0.01 | 0.01 | 35 | 1013.7 |
| 20260906191558 | 70 | 344 | 5.2 | 11.3 | 0.00 | 0.01 | 0.01 | 35 | 1013.8 |
| 20260906190057 | 70 | 22 | 3.5 | 12.2 | 0.00 | 0.01 | 0.01 | 35 | 1013.8 |
| 20260906184554 | 68 | 49 | 3.5 | 8.7 | 0.00 | 0.03 | 0.01 | 37 | 1014.0 |
| 20260906183052 | 69 | 333 | 4.3 | 11.3 | 0.00 | 0.03 | 0.01 | 34 | 1014.0 |
| 20260906181606 | 69 | 344 | 5.2 | 13.0 | 0.00 | 0.03 | 0.01 | 37 | 1014.1 |
| 20260906180106 | 68 | 13 | 3.5 | 11.3 | 0.00 | 0.03 | 0.01 | 39 | 1014.1 |
| 20260906174602 | 69 | 335 | 5.2 | 12.2 | 0.00 | 0.03 | 0.01 | 40 | 1014.2 |
| 20260906173048 | 68 | 330 | 5.2 | 13.0 | 0.00 | 0.03 | 0.01 | 40 | 1014.4 |
| 20260906171546 | 68 | 302 | 4.3 | 10.4 | 0.00 | 0.03 | 0.01 | 44 | 1014.5 |
| 20260906170056 | 67 | 294 | 1.7 | 8.7 | 0.00 | 0.03 | 0.01 | 44 | 1014.6 |
| 20260906164551 | 67 | 16 | 5.2 | 12.2 | 0.00 | 0.03 | 0.01 | 44 | 1014.9 |
| 20260906163101 | 67 | 316 | 2.6 | 9.6 | 0.00 | 0.03 | 0.01 | 46 | 1014.9 |
| 20260906161603 | 66 | 86 | 2.6 | 7.8 | 0.00 | 0.03 | 0.01 | 44 | 1015.0 |
| 20260906160056 | 65 | 34 | 3.5 | 9.6 | 0.00 | 0.03 | 0.01 | 46 | 1015.2 |
| 20260906154601 | 65 | 103 | 3.5 | 12.2 | 0.00 | 0.03 | 0.01 | 52 | 1015.3 |
| 20260906153053 | 64 | 0 | 3.5 | 11.3 | 0.00 | 0.03 | 0.01 | 57 | 1015.5 |
| 20260906151557 | 64 | 29 | 5.2 | 10.4 | 0.00 | 0.03 | 0.01 | 57 | 1015.6 |
| 20260906150104 | 64 | 313 | 3.5 | 9.6 | 0.00 | 0.03 | 0.01 | 63 | 1015.7 |
| 20260906144548 | 62 | 322 | 3.5 | 10.4 | 0.00 | 0.03 | 0.01 | 71 | 1015.7 |
| 20260906143108 | 61 | 330 | 2.6 | 10.4 | 0.00 | 0.03 | 0.01 | 83 | 1015.7 |
| 20260906141601 | 61 | 340 | 3.5 | 9.6 | 0.00 | 0.03 | 0.01 | 83 | 1015.7 |
| 20260906140058 | 62 | 341 | 1.7 | 7.8 | 0.00 | 0.03 | 0.01 | 86 | 1015.7 |
| 20260906134559 | 62 | 352 | 0.0 | 4.3 | 0.00 | 0.03 | 0.01 | 93 | 1015.9 |
| 20260906133052 | 61 | 0 | 0.9 | 3.5 | 0.00 | 0.03 | 0.01 | 94 | 1015.7 |
| 20260906131546 | 61 | 295 | 0.0 | 3.5 | 0.00 | 0.03 | 0.01 | 96 | 1015.6 |
| 20260906124600 | 60 | 5 | 0.0 | 2.6 | 0.00 | 0.03 | 0.01 | 96 | 1015.6 |
| 20260906123059 | 60 | 0 | 0.0 | 1.7 | 0.00 | 0.03 | 0.01 | 97 | 1015.7 |
| 20260906121547 | 60 | 317 | 1.7 | 3.5 | 0.00 | 0.03 | 0.01 | 98 | 1015.6 |
| 20260906120140 | 60 | 355 | 0.0 | 4.3 | 0.00 | 0.03 | 0.01 | 98 | 1015.5 |
| 20260906114605 | 59 | 349 | 0.0 | 3.5 | 0.00 | 0.03 | 0.01 | 98 | 1015.4 |
| 20260906113053 | 59 | 324 | 0.0 | 3.5 | 0.00 | 0.03 | 0.01 | 98 | 1015.3 |
| 20260906111557 | 59 | 315 | 0.0 | 1.7 | 0.00 | 0.03 | 0.01 | 98 | 1015.2 |
| 20260906110100 | 58 | 0 | 0.9 | 4.3 | 0.00 | 0.03 | 0.01 | 97 | 1015.0 |
| 20260906104556 | 58 | 0 | 0.0 | 0.9 | 0.00 | 0.03 | 0.01 | 96 | 1014.8 |
| 20260906103052 | 58 | 0 | 0.0 | 1.7 | 0.00 | 0.03 | 0.01 | 96 | 1014.7 |
| 20260906101600 | 58 | 0 | 0.0 | 1.7 | 0.00 | 0.03 | 0.01 | 95 | 1014.8 |
| 20260906100057 | 58 | 0 | 0.0 | 1.7 | 0.00 | 0.03 | 0.01 | 95 | 1014.7 |
| 20260906094557 | 57 | 348 | 0.0 | 1.7 | 0.01 | 0.03 | 0.01 | 94 | 1014.6 |
| 20260906093051 | 57 | 0 | 0.0 | 0.0 | 0.01 | 0.03 | 0.01 | 93 | 1014.6 |
| 20260906091601 | 57 | 0 | 0.0 | 0.9 | 0.01 | 0.03 | 0.01 | 92 | 1014.3 |
| 20260906090057 | 57 | 39 | 0.0 | 1.7 | 0.01 | 0.03 | 0.01 | 92 | 1014.3 |
| 20260906084554 | 57 | 0 | 0.0 | 0.9 | 0.00 | 0.02 | 0.00 | 91 | 1014.2 |
| 20260906083052 | 57 | 0 | 0.0 | 0.0 | 0.00 | 0.02 | 0.00 | 90 | 1014.3 |
| 20260906081548 | 57 | 0 | 0.0 | 0.9 | 0.00 | 0.02 | 0.00 | 89 | 1014.3 |
| 20260906080059 | 57 | 0 | 0.0 | 0.0 | 0.00 | 0.02 | 0.00 | 87 | 1014.2 |
| 20260906074554 | 57 | 0 | 0.0 | 0.9 | 0.00 | 0.02 | 0.00 | 85 | 1014.2 |
| 20260906073051 | 58 | 0 | 0.0 | 0.9 | 0.00 | 0.02 | 0.00 | 80 | 1014.0 |
| 20260906071600 | 58 | 0 | 0.0 | 0.9 | 0.00 | 0.02 | 0.00 | 80 | 1014.0 |
| 20260906070059 | 58 | 0 | 0.0 | 2.6 | 0.00 | 0.02 | 0.00 | 80 | 1014.0 |
| 20260906064553 | 58 | 0 | 0.0 | 2.6 | 0.00 | 0.02 | 0.00 | 80 | 1013.9 |
| 20260906063049 | 58 | 0 | 0.0 | 1.7 | 0.00 | 0.02 | 0.00 | 80 | 1013.8 |
| 20260906061602 | 58 | 0 | 0.0 | 3.5 | 0.00 | 0.02 | 0.00 | 80 | 1013.7 |
| 20260906060047 | 57 | 339 | 0.0 | 3.5 | 0.00 | 0.02 | 0.00 | 81 | 1013.9 |
| 20260906054605 | 57 | 0 | 0.0 | 4.3 | 0.00 | 0.02 | 0.00 | 81 | 1013.9 |
| 20260906053049 | 57 | 0 | 0.0 | 5.2 | 0.00 | 0.02 | 0.00 | 81 | 1013.8 |
| 20260906051548 | 57 | 0 | 0.0 | 0.9 | 0.00 | 0.02 | 0.00 | 81 | 1014.0 |
| 20260906050106 | 57 | 0 | 0.0 | 1.7 | 0.00 | 0.02 | 0.00 | 80 | 1014.0 |
| 20260906044549 | 58 | 0 | 0.0 | 1.7 | 0.00 | 0.02 | 0.00 | 79 | 1014.1 |
| 20260906043048 | 58 | 0 | 0.0 | 1.7 | 0.00 | 0.02 | 0.00 | 79 | 1013.8 |
| 20260906041602 | 58 | 0 | 0.0 | 3.5 | 0.00 | 0.02 | 0.00 | 79 | 1013.8 |
| 20260906040103 | 59 | 0 | 0.0 | 3.5 | 0.00 | 0.02 | 0.00 | 77 | 1014.0 |
| 20260906034554 | 59 | 0 | 0.0 | 2.6 | 0.00 | 0.02 | 0.02 | 76 | 1013.8 |
| 20260906033049 | 59 | 0 | 0.0 | 2.6 | 0.00 | 0.02 | 0.02 | 77 | 1013.6 |
| 20260906031613 | 60 | 0 | 0.0 | 3.5 | 0.00 | 0.02 | 0.02 | 78 | 1013.6 |
| 20260906030055 | 60 | 342 | 0.9 | 4.3 | 0.00 | 0.02 | 0.02 | 77 | 1013.6 |
| 20260906024601 | 61 | 0 | 0.0 | 4.3 | 0.00 | 0.02 | 0.02 | 78 | 1013.4 |
| 20260906023102 | 61 | 0 | 0.0 | 2.6 | 0.00 | 0.02 | 0.02 | 79 | 1013.4 |
| 20260906021603 | 62 | 352 | 0.0 | 2.6 | 0.00 | 0.02 | 0.02 | 79 | 1013.4 |
| 20260906020057 | 62 | 325 | 0.9 | 6.1 | 0.00 | 0.02 | 0.02 | 83 | 1013.2 |
| 20260906014553 | 62 | 0 | 0.0 | 0.9 | 0.00 | 0.02 | 0.02 | 84 | 1013.2 |
| 20260906013050 | 62 | 0 | 0.0 | 0.0 | 0.00 | 0.02 | 0.02 | 83 | 1013.3 |
| 20260906011547 | 62 | 0 | 0.0 | 0.0 | 0.00 | 0.02 | 0.02 | 83 | 1013.4 |
| 20260906010052 | 62 | 0 | 0.0 | 0.9 | 0.00 | 0.02 | 0.02 | 82 | 1013.4 |
| 20260906004546 | 63 | 0 | 0.0 | 0.0 | 0.00 | 0.02 | 0.02 | 81 | 1013.2 |
| 20260906003050 | 63 | 0 | 0.0 | 0.0 | 0.00 | 0.02 | 0.02 | 80 | 1013.0 |
| 20260906001547 | 64 | 0 | 0.0 | 0.0 | 0.00 | 0.02 | 0.02 | 80 | 1012.9 |
| 20260906000107 | 64 | 0 | 0.0 | 0.9 | 0.00 | 0.02 | 0.02 | 82 | 1012.6 |
| 20260905234559 | 65 | 0 | 0.0 | 2.6 | 0.00 | 0.02 | 0.02 | 83 | 1012.7 |
| 20260905233052 | 65 | 0 | 0.0 | 2.6 | 0.00 | 0.02 | 0.02 | 81 | 1012.5 |
| 20260905231549 | 66 | 0 | 0.0 | 0.0 | 0.00 | 0.02 | 0.02 | 77 | 1012.4 |
| 20260905230100 | 66 | 0 | 0.0 | 3.5 | 0.00 | 0.02 | 0.02 | 71 | 1012.3 |